Theta_e
333 336 339 341 342 343 344 345 345 345 345 343 343 343 343 345 347 348 348 348 347 347 348 347 348 347 347 347 347 346 345 345 345 346 347 347 347 348 347 347 348 349 349 350 350 349 350 351 351 348 343 339 342 347 349 349 350 350 350 350 350 350 349 348 348 347 345 343 343 343 342 339 337 334
330 330 332 335 336 338 341 343 344 345 345 345 344 344 343 343 344 346 348 348 347 347 347 347 347 348 347 347 347 346 346 346 346 346 347 347 348 348 348 349 348 349 349 349 349 349 349 350 350 351 349 344 342 345 348 348 349 350 350 350 350 349 349 348 347 347 346 343 341 339 337 335 333 331
330 330 330 331 332 333 336 338 341 343 344 345 345 345 344 344 344 344 346 348 348 347 347 348 347 348 348 348 348 347 347 347 347 347 348 348 348 349 349 349 349 349 350 350 350 349 350 350 349 349 350 349 346 345 347 348 348 348 349 349 349 348 349 349 347 346 345 343 341 337 334 332 331 331
330 331 332 332 332 333 333 335 338 340 342 344 344 345 345 344 344 344 344 346 347 346 345 346 346 346 347 347 348 348 348 348 348 348 348 348 349 350 350 350 350 350 350 351 350 350 350 350 350 350 350 350 348 347 346 347 348 347 346 347 348 348 349 349 347 346 344 342 340 337 332 330 330 332
332 333 333 334 334 334 334 336 338 340 341 342 343 344 344 344 344 344 344 345 346 345 344 344 345 344 345 346 347 348 349 349 349 349 348 347 348 350 351 351 351 351 351 351 351 351 351 350 350 350 350 350 350 349 348 347 348 348 346 343 344 346 347 347 345 344 342 341 339 335 332 329 328 329
333 333 334 334 335 335 336 337 339 339 340 341 341 342 343 343 344 344 343 344 344 344 344 344 344 345 345 346 347 348 349 349 349 349 349 348 348 349 350 351 351 351 351 351 351 351 351 351 351 350 350 351 351 350 350 348 348 349 348 344 341 342 343 343 343 341 339 338 336 334 332 330 329 328
332 331 331 333 336 336 337 337 338 339 339 340 341 341 341 341 342 343 344 344 343 344 344 344 345 346 346 347 347 348 348 348 349 349 349 349 348 348 348 349 350 351 352 352 352 352 351 352 351 351 351 351 351 351 351 350 349 349 350 348 344 341 341 341 341 340 338 337 335 333 332 331 330 330
327 326 327 331 335 336 336 336 337 338 339 339 340 340 340 341 341 342 344 345 345 345 345 345 345 346 347 347 347 347 347 347 347 348 349 349 349 349 348 348 348 349 350 351 352 352 352 352 352 352 352 352 351 352 351 351 350 350 350 350 348 346 343 341 340 339 338 337 335 333 332 331 331 331
322 321 323 328 333 335 335 335 335 336 338 338 339 339 340 340 340 341 342 344 345 345 346 346 345 345 346 346 346 346 347 347 347 347 348 349 349 349 349 348 348 348 348 349 350 351 352 352 353 353 353 353 352 352 352 351 351 351 351 351 351 349 347 345 342 340 338 337 335 334 332 332 332 333
319 319 320 324 330 333 334 335 335 335 336 336 337 337 337 338 339 340 341 342 343 344 345 345 344 344 345 346 345 346 346 347 347 348 348 349 349 349 349 349 348 348 348 348 348 348 349 350 351 352 353 353 353 352 352 352 352 352 352 352 351 351 350 349 347 344 341 339 337 335 334 333 334 334
318 318 318 321 327 331 332 333 334 334 335 335 335 334 334 335 336 338 339 340 341 342 343 344 344 343 343 344 345 345 346 346 347 347 348 349 348 348 348 348 348 348 348 348 348 347 347 347 348 349 351 352 353 353 353 353 352 353 352 352 352 352 351 351 350 349 347 345 342 340 338 336 336 337
317 317 318 319 323 328 331 332 332 333 333 333 333 332 332 332 332 334 335 337 339 341 342 342 342 342 343 343 344 344 345 346 347 347 347 348 348 347 347 347 348 348 348 348 348 348 347 347 347 347 348 350 351 352 353 353 353 353 353 353 353 353 353 352 351 350 350 349 348 346 344 343 342 341
315 316 317 318 321 326 329 330 331 331 330 330 330 330 331 330 330 330 331 332 334 337 340 340 341 342 342 343 343 343 344 345 345 345 345 346 346 346 346 346 346 347 348 348 348 348 348 348 347 348 348 348 348 350 351 352 353 353 353 353 353 353 353 353 353 352 351 351 350 349 349 348 347 346
314 316 317 318 320 324 327 328 328 329 328 328 327 327 328 328 328 328 328 329 330 332 335 338 340 342 342 342 342 342 342 343 343 344 344 345 345 345 345 346 346 347 347 348 348 348 348 348 348 348 347 347 347 348 349 350 351 352 353 353 353 353 353 353 353 352 352 352 352 351 351 350 349 349
314 316 318 320 320 322 325 325 324 325 325 325 325 325 325 325 325 326 327 328 328 329 331 333 337 341 342 342 341 341 342 342 342 343 343 344 344 344 346 346 346 346 347 347 348 348 348 348 348 348 347 347 348 348 349 349 349 350 350 351 352 352 353 353 353 353 352 352 352 352 351 350 349 349
315 317 318 320 320 321 323 322 321 321 321 322 323 324 324 323 323 324 325 327 328 329 329 330 333 337 339 340 341 341 340 340 341 341 342 343 343 344 345 346 346 346 346 347 348 348 348 347 347 347 347 347 348 348 347 348 348 349 349 349 349 349 351 351 352 352 352 352 352 352 351 350 349 349
315 317 318 319 319 320 320 320 319 319 321 322 324 325 324 323 323 324 325 326 327 328 329 329 330 333 336 336 336 335 335 335 338 340 340 341 341 342 343 344 345 346 346 347 348 348 348 348 347 348 348 347 348 347 347 347 347 348 349 349 349 349 349 349 349 350 351 351 351 351 350 350 350 350
316 317 317 318 318 318 318 318 318 319 321 322 323 323 322 322 324 325 325 325 326 327 328 328 329 331 332 333 332 331 332 332 335 338 339 340 341 341 342 342 342 343 343 344 345 346 347 348 348 349 349 348 348 347 347 347 347 348 349 349 350 350 350 350 349 349 349 350 350 350 350 350 350 351
315 316 317 317 316 316 316 316 317 319 321 320 320 322 322 322 323 324 324 324 325 326 327 327 328 329 330 331 331 331 332 332 332 333 335 338 339 340 341 341 342 342 342 341 343 344 345 345 347 348 348 348 349 348 348 348 348 349 349 349 350 350 351 351 351 350 350 350 350 350 350 350 351 351
314 315 316 315 314 314 313 313 314 317 319 318 317 319 320 320 321 322 323 324 325 326 326 327 328 330 330 330 331 332 333 333 331 331 333 335 337 338 339 340 341 341 341 341 341 343 343 343 345 346 347 348 349 349 349 349 349 349 349 349 350 351 351 352 353 353 353 352 351 351 351 351 351 351
312 314 315 314 313 312 311 310 311 315 316 313 313 315 316 316 318 319 321 322 324 325 326 327 329 330 331 332 333 334 335 335 335 334 335 335 336 337 339 340 340 340 340 340 341 342 343 343 344 345 345 346 347 348 348 348 348 348 348 349 350 351 351 353 353 354 354 353 352 352 352 352 351 351
311 312 314 314 312 311 309 308 308 311 312 310 309 311 312 313 314 315 317 319 321 323 325 327 328 329 330 331 332 332 334 335 335 335 336 337 337 338 339 340 340 340 340 340 340 342 343 343 344 344 345 345 346 345 345 346 346 347 347 348 349 349 350 351 352 353 354 353 351 351 351 352 353 353
310 311 312 312 311 309 308 306 306 307 309 308 307 308 309 310 311 313 315 318 320 321 323 325 325 326 327 328 329 329 330 331 332 332 334 335 336 338 340 340 340 341 341 340 341 342 343 343 343 344 344 346 346 345 345 346 346 346 347 348 348 348 348 349 349 349 350 350 349 350 351 352 354 354
310 310 310 309 308 307 306 305 305 305 307 307 306 306 308 309 310 312 314 317 318 319 321 323 323 322 323 324 325 326 327 328 328 328 330 331 332 335 337 339 340 340 341 340 340 341 342 342 343 343 344 345 346 345 345 346 346 347 347 348 348 348 348 348 348 347 347 347 348 349 350 352 354 354
309 309 308 307 307 306 305 305 304 304 305 306 305 305 306 307 308 310 312 314 315 317 318 320 319 318 318 319 321 321 322 324 324 325 327 328 329 331 333 335 338 339 340 340 340 341 341 341 342 342 343 343 343 344 344 344 344 345 346 346 347 347 347 347 348 347 347 347 348 349 349 350 352 352
308 307 307 306 305 305 305 304 304 303 304 304 303 303 305 305 306 308 309 310 312 313 315 316 315 315 315 315 316 317 318 319 320 320 323 326 327 329 330 332 334 336 338 339 339 340 340 340 340 342 342 343 343 343 343 344 344 344 344 345 346 346 347 347 348 348 348 348 348 348 349 349 350 351
307 306 306 306 304 304 304 304 303 303 303 302 301 301 303 304 304 305 306 308 309 310 312 313 312 312 312 312 313 314 315 316 317 318 320 323 324 326 329 330 332 334 336 337 337 338 339 340 340 341 341 341 342 342 342 342 343 343 343 344 344 344 345 346 347 348 348 349 349 349 349 349 350 350
306 305 306 305 304 303 303 304 303 303 302 301 300 299 300 302 303 303 304 306 307 307 308 310 310 310 310 310 311 312 314 314 314 316 319 320 322 324 327 329 331 333 334 334 333 334 337 338 339 340 340 339 340 340 341 341 341 341 341 342 342 342 343 344 345 346 346 347 348 349 348 349 348 348
304 304 305 305 304 303 303 303 303 303 302 301 300 298 298 299 301 302 303 304 304 305 306 307 307 307 307 308 309 311 312 312 312 314 317 318 320 322 325 328 329 330 331 330 328 329 332 334 335 337 338 339 339 340 340 340 340 341 340 340 341 341 341 342 342 343 344 345 346 346 346 347 346 346
302 303 304 303 303 303 303 303 303 303 302 301 300 299 298 298 299 300 301 302 302 303 304 305 305 305 305 306 308 309 311 310 310 312 315 316 317 320 322 324 325 326 326 326 325 325 326 328 330 333 336 338 339 339 340 340 340 340 340 340 340 340 341 341 341 342 342 343 344 344 344 345 345 345
301 302 302 302 302 302 302 302 301 301 301 301 301 300 299 299 299 299 300 300 300 301 301 302 303 303 303 304 306 307 309 310 309 310 313 314 315 317 319 320 321 321 322 323 323 322 322 323 327 329 332 335 337 339 339 339 340 340 340 340 340 341 340 341 341 342 342 342 343 343 343 344 344 344
301 301 301 300 301 302 302 301 300 300 301 301 301 300 300 299 299 299 298 298 298 298 299 299 301 302 301 302 304 305 308 308 308 308 310 312 313 315 317 318 319 319 319 320 321 320 319 320 323 325 327 330 334 336 338 339 339 339 339 340 340 340 340 340 341 341 342 342 342 342 343 343 343 343
301 301 301 301 301 301 302 303 302 302 302 301 301 300 300 300 299 299 298 298 298 298 298 299 300 300 300 300 302 303 306 306 306 307 308 309 311 314 315 317 317 317 317 318 318 318 317 317 320 323 324 328 332 333 333 332 331 331 332 335 336 336 336 337 337 338 340 341 342 342 341 341 342 342
301 301 301 302 302 302 303 303 303 302 302 302 301 300 300 300 300 299 298 297 298 298 297 298 299 299 299 299 301 302 304 305 305 305 306 307 309 311 313 315 316 315 315 316 317 317 315 315 317 320 322 324 328 330 328 325 323 324 326 329 331 332 332 331 332 333 335 338 339 340 340 340 341 341
302 302 302 302 303 303 303 304 303 302 302 302 301 300 300 300 299 299 298 297 297 297 296 297 298 298 298 299 300 301 302 303 304 304 305 306 307 309 311 313 314 313 313 314 316 316 315 313 315 318 319 320 323 325 324 321 320 322 325 326 327 328 328 328 328 328 331 333 336 338 340 341 341 341
303 303 303 302 303 303 303 303 303 302 301 301 301 300 300 300 299 298 297 296 296 296 295 295 297 298 297 298 299 300 301 302 302 303 304 305 306 308 309 311 312 312 312 312 314 314 314 314 314 316 317 318 320 322 321 319 317 320 323 324 324 324 325 325 326 327 328 330 330 333 336 338 338 339
303 303 303 303 302 302 302 302 303 302 301 300 300 300 300 299 298 298 297 296 295 295 294 294 295 296 296 296 297 298 299 301 302 303 304 304 305 307 308 309 311 311 310 311 312 313 313 313 313 314 315 316 316 317 317 317 316 318 320 321 322 323 323 323 325 327 327 327 328 330 332 334 334 335
303 303 303 302 302 301 301 302 302 301 301 300 300 299 299 299 298 298 297 296 295 294 294 294 295 295 295 295 296 297 298 299 301 302 303 303 304 305 307 307 309 309 309 310 311 311 311 311 312 313 314 314 315 315 315 315 316 318 319 318 320 322 322 321 322 325 325 325 326 327 328 330 331 331
302 302 302 302 301 301 301 301 301 301 300 300 300 300 299 298 298 298 298 297 295 294 294 294 294 294 294 294 295 296 297 299 300 301 302 302 303 305 305 306 307 307 308 309 310 310 310 310 310 311 312 313 313 313 314 314 315 316 317 318 319 320 320 319 320 322 323 323 324 324 325 326 327 327
302 302 301 301 301 301 301 301 301 301 300 300 300 300 299 298 298 298 298 297 295 294 294 294 294 293 293 293 294 295 297 298 299 300 301 301 302 303 304 305 306 306 307 308 308 309 309 308 308 309 310 311 311 312 313 314 315 315 315 316 317 318 317 317 316 318 320 321 321 322 324 325 327 328
302 302 302 302 302 301 301 301 301 301 301 300 300 299 299 298 297 298 297 296 295 294 293 293 293 293 293 293 293 295 296 297 298 299 300 300 301 302 303 304 305 305 306 307 307 307 307 307 307 308 309 309 310 312 314 316 316 315 314 315 316 316 315 315 314 315 317 318 319 322 324 326 327 329
301 301 301 301 302 301 301 301 301 301 300 300 300 299 298 298 297 297 296 294 293 293 293 292 292 292 292 293 293 294 295 296 297 298 299 299 300 301 302 303 304 304 305 305 306 306 305 305 306 307 308 309 311 313 314 315 316 316 315 315 314 314 314 314 314 314 315 316 319 322 324 325 326 327
301 301 301 301 301 301 301 301 301 301 300 300 299 298 298 297 297 296 294 293 292 292 292 292 292 292 292 293 293 294 294 295 297 297 297 298 300 300 301 302 303 304 304 304 304 305 305 305 305 307 308 309 311 313 313 314 315 316 316 315 314 313 313 314 313 313 314 316 318 320 320 321 323 324
301 301 301 301 301 301 301 301 301 301 300 300 299 298 297 297 296 295 294 293 292 292 291 291 291 291 292 293 293 294 294 295 296 296 297 298 299 299 300 301 302 303 303 303 304 304 304 304 305 306 308 309 311 312 313 314 314 315 314 314 314 313 314 314 314 313 313 314 317 318 318 318 319 320
301 301 302 301 301 301 302 301 301 300 300 300 299 298 297 296 295 294 293 292 292 292 291 291 291 291 292 292 293 293 294 295 295 296 296 297 298 299 300 301 302 303 303 303 303 304 304 305 305 306 307 308 310 310 311 313 314 313 313 313 313 313 313 314 314 315 316 316 316 317 317 318 318 319
Wind_Speed
12 11 10 10 10 11 10 9 9 9 8 7 7 7 6 6 4 3 3 3 3 4 5 6 7 6 9 10 10 12 13 16 20 26 29 30 30 30 29 28 28 28 29 30 30 31 31 31 30 30 32 33 31 30 30 30 29 29 29 29 28 28 28 27 27 28 28 29 30 28 28 28 27 26
13 12 10 10 10 10 11 10 9 9 9 7 6 6 7 8 7 5 4 5 5 5 6 8 8 7 8 7 7 8 7 8 13 20 25 28 29 30 29 29 28 27 28 29 29 30 31 32 32 31 30 32 32 31 30 30 29 29 29 29 28 28 28 27 28 28 29 30 30 30 30 29 28 26
13 13 12 10 10 11 11 10 10 8 8 7 7 7 6 8 10 9 7 5 5 5 5 7 9 10 11 10 11 10 8 6 8 13 18 23 25 27 29 29 29 28 28 29 29 30 31 32 33 33 32 31 32 32 31 30 30 30 30 30 29 29 28 29 29 30 30 30 30 30 29 29 28 27
13 13 13 12 11 12 11 11 11 9 8 7 7 7 7 7 9 11 9 7 8 11 12 13 16 15 15 16 16 15 14 12 13 13 14 18 21 24 27 28 29 29 29 29 29 30 31 32 33 34 34 33 32 32 32 32 32 32 31 31 30 29 30 31 31 31 31 32 31 31 30 29 28 28
14 14 13 13 12 12 12 11 11 11 9 8 7 7 8 8 9 10 10 9 9 14 16 17 18 16 15 17 17 16 17 17 16 14 13 15 18 22 25 26 28 29 29 29 30 30 30 31 33 34 34 34 34 33 33 33 33 34 34 34 32 31 31 32 32 32 33 33 33 32 31 31 30 30
14 13 13 13 13 12 12 11 11 11 11 10 9 8 8 9 9 8 9 9 8 11 16 18 17 15 13 14 14 14 16 16 15 14 14 14 15 19 22 24 26 27 28 29 29 30 30 31 32 33 34 35 35 34 33 33 33 34 35 36 35 34 33 33 33 33 33 33 33 32 31 31 31 31
14 13 13 13 13 13 13 12 12 11 11 11 9 9 9 9 9 9 9 11 9 9 13 16 16 14 11 12 13 14 15 14 14 15 15 14 14 16 19 22 24 26 26 28 28 29 30 30 32 33 34 34 35 35 35 34 34 34 35 35 36 37 36 36 35 34 33 33 32 32 31 31 30 30
15 14 14 13 13 13 13 13 13 12 12 11 9 10 10 9 10 10 10 11 12 11 12 14 15 14 12 12 14 15 15 15 15 15 15 15 15 15 16 19 22 24 24 25 27 28 29 30 31 32 33 34 35 36 36 36 36 35 35 35 35 36 37 37 37 37 36 35 34 33 32 31 31 30
16 15 15 13 12 13 13 13 14 13 12 11 10 10 10 10 11 11 10 11 12 12 13 14 16 16 14 13 13 14 15 15 15 15 15 15 16 16 16 17 20 22 23 24 25 26 27 28 30 32 32 33 34 35 36 37 38 38 37 36 35 35 36 36 37 37 38 37 36 36 34 33 33 32
16 16 16 14 11 12 14 14 13 13 12 12 11 11 11 11 11 11 11 11 11 12 12 13 15 15 14 14 13 13 12 13 14 14 13 14 15 15 15 15 16 18 21 23 24 25 26 27 29 31 32 33 34 35 35 37 38 39 39 38 37 36 36 36 36 36 37 37 38 38 37 36 35 34
15 15 15 15 12 11 14 14 12 11 11 11 11 13 13 14 13 13 12 12 11 12 12 12 13 14 15 14 14 13 12 12 13 12 12 13 14 13 13 14 15 16 18 21 22 24 26 26 26 28 30 32 33 35 36 38 39 40 41 41 40 40 38 38 37 37 36 36 37 37 38 38 37 36
15 14 14 14 12 11 13 13 11 11 12 12 13 13 13 15 15 15 15 15 13 12 12 13 13 13 14 14 13 13 12 11 11 10 10 13 14 13 14 16 16 16 18 19 19 21 23 24 26 26 27 29 30 32 34 37 39 40 41 42 42 42 42 41 40 39 38 37 37 36 37 37 38 37
16 15 14 13 12 11 11 11 11 12 13 14 15 15 15 15 16 17 17 16 16 14 12 13 14 13 12 12 12 12 12 11 12 12 11 13 14 14 16 18 17 16 18 19 19 20 20 21 23 25 28 29 29 30 31 33 35 37 39 41 42 43 43 43 42 42 40 40 39 38 37 37 37 37
16 15 13 11 11 10 9 12 13 13 13 15 16 16 16 16 16 17 17 16 15 14 13 13 13 11 10 10 11 13 14 13 13 13 12 12 13 13 14 16 17 15 14 14 17 20 20 20 21 23 25 27 28 29 31 32 32 33 34 36 38 40 42 43 43 43 43 42 41 40 39 38 37 38
16 16 14 12 11 11 12 14 15 14 15 17 17 17 17 16 16 15 14 14 13 13 13 14 13 12 11 10 11 13 14 12 12 12 12 12 13 12 10 9 12 13 11 10 13 16 16 17 20 22 23 24 25 27 29 30 29 30 30 32 34 36 38 40 41 42 43 43 42 41 40 39 38 37
17 17 16 14 13 13 14 16 17 18 19 19 17 16 16 17 16 13 10 10 11 12 13 14 14 14 12 10 10 11 11 11 12 12 11 12 13 13 12 10 11 12 11 10 12 14 14 14 17 21 22 23 23 24 25 25 25 26 27 28 30 32 34 36 38 40 41 42 42 42 41 39 38 37
15 17 19 17 15 13 14 16 18 20 20 18 15 14 15 15 14 11 8 7 7 9 10 12 13 14 12 11 11 11 11 12 12 12 12 13 13 13 13 13 14 14 13 11 12 15 16 15 17 21 23 21 21 22 23 23 23 24 24 25 27 29 30 32 34 36 38 38 39 40 40 39 38 37
14 18 19 15 13 13 15 18 18 18 19 17 14 14 16 15 12 11 10 10 8 7 9 11 13 14 13 13 13 12 11 11 12 12 13 14 14 14 14 14 16 16 15 14 13 12 13 13 15 20 22 20 20 21 21 21 21 22 22 23 25 27 27 28 29 31 33 35 36 37 37 37 37 37
15 18 17 14 13 14 16 18 18 17 18 17 14 12 13 14 12 11 12 12 10 10 11 11 12 13 12 12 12 12 12 12 12 13 14 15 14 15 15 15 15 14 14 13 12 11 14 15 15 18 20 19 19 20 20 20 20 20 20 21 22 24 25 26 27 28 29 31 33 33 34 34 35 34
15 18 17 15 15 16 18 19 18 17 16 16 15 13 12 13 12 11 11 11 10 11 13 13 11 10 10 10 11 10 11 11 11 13 14 13 12 12 13 14 14 12 11 11 10 12 16 18 17 19 21 19 18 20 21 20 20 20 20 20 20 21 22 24 25 26 27 28 27 27 28 29 29 28
15 17 17 18 17 16 19 20 18 17 16 16 17 15 13 14 15 15 14 12 11 12 12 11 10 9 7 7 6 5 6 7 8 10 11 10 9 9 9 9 11 12 12 12 12 13 16 16 15 18 20 19 19 21 22 22 21 20 21 20 20 20 20 22 23 25 26 25 23 23 24 25 24 24
16 15 17 20 19 17 19 20 19 18 17 18 19 16 15 15 16 17 18 16 14 14 11 9 10 9 7 7 6 5 5 4 4 5 7 9 9 9 8 8 10 13 13 11 10 11 14 14 13 15 16 16 16 19 21 21 21 21 21 21 21 21 21 21 22 23 23 22 22 25 25 24 24 24
17 16 17 20 20 17 18 19 20 20 19 18 20 18 15 14 16 17 17 16 16 16 12 11 11 10 9 8 8 8 7 6 7 7 8 9 8 8 10 11 10 9 7 5 5 7 12 13 11 11 10 8 8 11 13 15 17 18 20 21 22 23 23 23 23 23 22 21 22 24 25 24 24 24
16 15 15 18 18 17 18 19 19 20 20 18 19 19 16 15 17 17 15 13 15 15 12 11 12 12 12 10 10 11 10 9 10 10 10 11 10 9 10 11 11 9 7 8 9 10 12 12 10 9 9 7 6 7 10 12 13 14 15 18 20 20 22 23 24 24 24 23 23 23 24 25 25 25
14 14 14 16 17 16 18 19 19 20 20 19 20 20 18 17 17 15 13 12 13 13 12 12 12 14 15 14 13 14 13 12 13 14 13 12 12 11 11 11 11 11 11 12 12 11 11 14 13 11 11 11 11 12 14 16 17 17 16 17 18 18 19 20 22 23 24 24 24 24 25 26 26 27
13 14 14 16 17 16 16 18 20 21 21 21 21 20 17 17 18 16 13 13 13 13 13 13 13 15 16 16 15 15 15 14 15 16 15 13 13 12 11 11 11 12 13 13 13 12 12 15 16 13 11 12 13 14 15 15 16 17 17 17 17 18 18 19 21 21 21 22 23 24 25 26 27 27
14 14 14 16 17 17 17 18 19 21 23 23 23 21 19 19 19 18 16 15 14 14 13 13 14 15 16 16 16 16 16 17 18 18 15 14 13 12 12 12 12 13 15 15 13 11 12 15 16 14 12 11 11 12 12 12 13 14 14 15 16 17 17 19 20 21 21 21 21 21 22 23 23 24
15 14 13 14 17 17 17 18 19 21 23 24 25 24 23 21 21 21 19 17 15 15 14 14 14 15 15 15 16 16 16 17 19 18 15 14 14 12 10 10 9 9 10 10 10 8 8 12 14 14 14 13 12 11 11 11 13 14 14 15 16 16 16 17 18 19 20 20 20 20 21 21 21 21
14 14 12 12 16 17 18 19 19 20 22 24 26 28 28 27 25 23 20 17 16 15 15 14 14 14 15 15 15 16 16 18 21 19 16 16 15 13 10 7 5 6 6 8 12 12 8 8 10 10 11 12 14 15 15 14 15 15 14 15 16 17 17 17 17 18 19 20 21 22 22 23 22 22
16 15 13 13 14 16 17 18 18 19 21 24 28 31 32 31 27 23 20 18 17 15 14 14 14 14 15 14 14 15 15 19 23 20 17 18 19 17 14 11 9 9 9 10 13 15 12 11 11 10 9 10 12 15 17 17 18 17 15 16 17 16 15 15 14 16 17 18 18 19 20 20 21 22
19 18 16 16 15 16 17 19 20 21 22 24 27 29 31 31 27 24 22 20 19 17 15 14 14 14 15 14 14 15 14 17 21 21 17 18 20 20 18 16 15 14 13 13 15 16 15 13 11 10 9 8 9 11 13 16 18 18 17 17 17 16 16 16 15 15 15 16 16 17 17 18 19 20
18 18 18 19 19 18 18 19 21 22 22 24 25 26 28 30 30 29 28 28 26 24 21 18 15 16 16 15 15 15 14 15 19 20 18 18 20 19 18 16 15 16 17 18 18 18 17 15 12 10 9 7 7 9 9 10 12 15 17 17 15 16 18 19 18 19 18 17 18 19 19 20 20 20
15 16 17 18 18 18 16 15 17 18 18 21 24 25 26 28 28 29 30 29 25 23 22 19 16 17 17 15 15 15 15 16 18 19 19 19 19 19 18 15 14 15 16 18 20 21 21 19 14 10 9 6 3 3 5 6 9 11 13 12 10 10 11 12 12 12 12 13 14 17 19 20 20 20
12 14 15 15 15 15 14 13 13 14 14 16 20 22 24 24 24 25 27 27 23 21 21 19 16 16 16 15 15 15 14 16 17 17 18 20 19 19 18 14 13 16 17 17 18 20 22 23 20 15 11 9 5 4 7 12 14 15 15 14 13 13 14 14 13 11 9 9 10 13 16 18 18 18
11 12 13 13 13 13 12 12 11 12 13 14 16 19 20 20 21 22 24 26 25 23 22 20 17 16 16 14 14 14 13 14 15 16 17 19 19 19 17 13 13 17 19 19 17 17 20 24 23 19 16 14 9 4 6 14 17 15 14 14 14 15 15 15 15 14 11 9 9 10 12 14 15 15
9 10 11 12 12 11 11 11 10 11 13 14 16 16 16 17 20 21 23 25 25 23 21 20 16 15 16 15 13 13 13 13 14 14 15 16 17 17 16 14 13 15 17 18 16 16 18 19 19 16 13 11 8 4 6 13 17 13 12 15 16 16 16 16 16 15 13 12 12 11 10 11 13 13
7 8 9 10 11 10 10 10 9 9 11 14 16 16 15 16 20 23 24 26 26 23 22 19 16 14 15 14 13 12 12 12 12 13 14 14 15 15 14 14 14 14 16 17 15 15 16 16 16 15 11 7 7 6 8 15 17 13 12 17 19 17 16 17 15 14 13 14 13 12 12 12 15 16
6 6 7 9 10 10 9 9 9 8 10 13 15 17 18 19 20 23 25 26 25 24 23 19 16 14 14 13 12 12 12 12 12 12 13 13 14 14 14 14 14 14 16 16 14 15 16 16 15 14 11 7 6 6 9 15 18 14 11 14 17 16 15 15 14 13 14 15 15 15 15 14 17 19
6 6 7 8 9 10 10 10 9 8 10 12 12 14 18 21 20 19 20 22 23 24 23 18 15 14 13 12 11 10 10 11 11 11 12 13 12 13 13 13 14 14 16 15 14 15 16 16 16 16 14 10 10 11 13 14 17 16 12 11 12 14 14 14 13 12 13 15 16 18 19 19 19 20
6 7 7 8 9 10 11 11 9 8 10 12 12 12 16 21 19 16 16 18 20 21 21 17 14 13 12 11 10 10 10 10 10 10 11 11 11 12 13 13 13 14 14 15 15 15 16 17 19 19 18 16 15 15 14 12 12 14 14 11 9 11 13 14 14 12 12 14 15 17 18 19 19 19
8 9 8 8 8 10 11 11 9 8 10 13 14 15 17 19 17 15 16 17 16 16 16 15 13 12 12 11 10 10 10 10 10 10 11 11 11 12 13 12 12 14 14 14 15 16 17 19 21 19 17 17 16 13 10 7 8 12 16 14 10 10 11 13 14 13 12 14 14 13 13 14 15 15
10 10 9 9 9 10 12 11 10 9 10 12 16 18 18 15 14 15 15 15 14 13 13 13 12 13 12 11 10 10 10 10 10 10 10 11 11 12 13 12 12 13 14 14 14 16 18 20 21 19 18 17 15 10 8 8 9 12 15 16 14 12 12 13 13 14 14 13 10 8 8 10 10 10
9 10 10 10 10 11 12 12 10 10 10 13 17 20 18 14 13 14 14 13 14 13 13 13 13 13 13 12 11 11 10 9 10 10 10 10 11 11 12 12 12 13 15 15 15 17 19 21 20 18 16 15 13 9 9 10 11 11 12 14 15 16 15 13 13 13 13 11 8 6 7 9 8 8
8 9 9 10 10 11 12 12 10 10 10 13 18 20 17 14 14 14 12 12 14 14 13 13 13 13 13 13 12 11 10 10 10 10 10 10 11 11 11 12 13 13 15 16 16 17 19 21 20 16 14 13 12 11 10 11 11 10 11 13 16 18 18 16 15 14 13 11 10 10 10 10 10 12
8 9 9 10 11 12 12 12 10 10 11 14 18 18 16 15 14 13 11 12 13 13 13 13 13 13 13 13 12 12 11 11 10 10 10 11 11 11 11 12 13 14 15 16 15 16 17 19 18 17 14 12 12 12 11 10 10 10 10 11 13 15 17 18 18 16 14 13 13 13 12 10 10 11
Wind_Direction
9 11 10 2 354 355 358 353 354 351 331 307 291 293 293 282 277 291 287 270 271 269 259 278 294 267 243 244 250 253 256 257 254 252 251 252 253 253 254 254 253 251 250 246 242 240 237 234 233 233 236 236 233 230 229 230 230 230 231 230 230 232 233 234 234 234 235 236 236 236 238 241 242 240
8 10 10 4 356 356 359 358 358 356 344 329 313 301 285 271 260 257 274 273 261 261 260 265 275 274 263 260 264 259 256 264 261 255 254 254 256 257 256 256 255 253 251 248 244 241 239 236 235 234 234 235 235 233 231 231 230 230 231 231 230 231 231 232 232 233 234 235 235 235 236 239 241 240
4 6 9 7 358 354 357 1 4 360 349 340 330 319 296 272 263 259 267 277 263 260 274 275 271 276 281 286 289 278 262 274 285 270 258 256 258 259 259 258 257 255 253 250 246 243 241 238 238 237 236 236 236 235 233 232 232 231 231 231 231 231 229 229 230 231 233 235 237 237 238 239 240 240
3 3 6 7 2 357 359 3 5 3 354 343 333 330 320 299 281 270 263 264 269 272 278 282 281 283 283 283 289 289 277 276 288 286 270 260 257 256 258 259 258 257 255 252 249 245 243 240 239 239 238 238 238 238 236 233 233 234 233 232 232 231 230 229 229 231 233 235 238 240 241 242 242 242
3 2 3 4 1 358 2 7 7 5 1 351 340 335 329 318 304 288 273 266 275 282 283 285 289 292 288 281 283 291 290 285 282 279 271 264 259 254 254 257 259 258 257 255 252 248 245 242 239 239 238 239 239 239 238 236 235 235 236 237 235 234 233 232 232 233 234 237 239 242 244 245 245 244
3 2 2 3 2 359 1 6 6 3 360 355 348 341 333 323 315 306 288 274 272 283 288 290 294 297 292 285 284 289 294 293 286 276 266 263 263 259 255 254 256 259 259 257 255 252 248 244 241 240 239 239 239 240 239 238 237 236 237 239 239 238 237 237 238 238 238 240 242 244 246 247 247 247
2 2 4 5 5 3 1 2 4 1 356 353 348 342 338 328 318 312 299 284 271 274 286 294 298 298 291 288 290 293 295 295 292 284 274 265 262 261 259 257 255 256 258 259 258 256 253 249 245 242 241 241 240 241 241 240 239 239 240 240 241 241 241 241 242 242 243 243 245 247 248 250 250 249
1 2 5 4 4 5 2 359 0 359 354 349 344 339 339 334 325 319 307 293 285 281 285 294 301 302 296 290 292 293 293 294 293 289 282 275 270 266 263 261 258 256 255 256 257 257 256 254 251 248 245 244 243 243 243 242 242 242 243 243 243 243 243 243 244 244 245 246 247 248 249 250 251 251
359 1 3 2 2 7 3 356 354 355 354 351 348 347 345 338 332 327 316 304 298 291 288 295 303 305 301 297 297 295 293 295 297 294 286 280 278 276 271 266 262 259 257 255 255 255 255 254 253 253 251 249 247 246 245 245 244 244 244 245 246 245 245 245 245 245 246 248 248 249 250 251 252 252
357 357 360 358 1 9 2 350 349 353 357 359 358 359 357 347 338 333 327 318 308 300 296 300 305 308 307 303 302 302 300 297 297 297 294 288 283 283 284 279 271 263 258 256 254 253 252 251 251 252 253 253 251 249 248 247 246 245 246 246 247 248 247 247 246 246 247 248 249 250 251 251 252 253
354 352 354 354 358 8 358 347 348 353 356 2 2 2 3 358 351 344 339 332 321 311 306 305 305 308 311 308 304 306 308 300 293 290 290 291 289 289 291 288 282 274 264 258 256 254 253 252 250 250 252 253 253 252 250 249 248 247 247 247 247 248 248 248 248 247 247 248 249 250 251 252 252 253
350 347 348 350 355 358 349 343 350 357 356 358 357 355 358 1 359 353 347 343 336 324 313 310 310 311 314 314 312 313 308 294 289 288 283 282 286 289 286 280 279 276 268 261 259 257 256 255 253 252 252 252 253 253 252 251 250 248 248 248 247 248 249 249 249 249 249 249 249 250 251 252 252 253
353 350 346 347 352 353 346 342 349 354 352 351 349 345 346 351 354 352 347 345 343 335 323 317 317 314 314 319 321 316 307 295 293 297 291 282 282 288 287 284 284 280 272 270 268 263 260 259 256 254 253 253 254 255 254 253 251 250 248 248 248 248 249 249 249 250 250 250 250 250 252 253 253 253
357 360 357 352 351 353 353 349 345 345 345 344 342 340 339 341 344 343 339 337 338 336 329 323 321 314 309 316 321 313 309 309 303 295 288 284 285 288 288 290 292 288 279 277 273 268 265 262 260 257 255 255 254 254 253 252 252 252 251 249 249 248 249 249 249 250 250 250 251 251 251 252 253 254
3 8 11 5 360 2 0 348 337 335 339 338 336 334 330 328 329 330 326 323 325 329 327 322 320 314 306 307 309 306 309 316 312 300 292 289 289 286 282 284 289 287 282 275 270 270 269 263 259 257 255 255 253 251 252 252 253 254 255 254 253 251 250 250 250 250 250 250 251 251 251 252 253 254
7 10 8 7 10 9 0 348 338 335 335 334 332 329 324 322 324 325 320 313 314 317 319 317 312 311 314 316 312 312 320 322 317 312 304 294 290 285 277 270 272 279 284 277 266 268 271 264 257 255 255 254 254 255 256 255 255 255 255 255 255 254 253 253 252 251 251 251 251 251 252 252 253 255
9 8 4 8 15 11 5 359 350 342 340 340 336 331 332 338 342 346 345 332 316 309 308 306 300 303 318 328 323 321 325 320 315 314 308 300 298 292 281 274 273 275 278 275 268 267 268 264 260 260 261 260 259 261 262 260 258 257 255 253 253 253 254 254 254 253 252 252 252 251 251 251 253 255
9 8 9 14 15 12 11 6 356 349 350 352 347 337 339 347 352 356 355 349 339 322 311 303 292 291 301 310 310 312 313 311 309 307 303 302 302 299 292 287 282 277 273 272 273 274 273 268 263 263 266 267 265 265 267 266 265 262 259 257 255 254 254 254 253 252 251 250 250 249 250 251 253 254
8 9 16 24 19 16 13 2 357 358 354 351 353 345 338 340 344 355 357 352 349 340 331 323 303 292 295 299 302 308 306 301 299 296 293 292 295 298 298 294 288 285 285 280 270 266 270 269 261 262 269 271 269 267 266 265 266 265 264 262 260 258 256 255 253 250 249 248 247 246 248 250 251 251
9 9 20 29 24 20 13 1 358 3 355 350 357 353 340 338 342 351 354 354 355 348 340 339 327 312 308 307 305 308 304 296 294 293 291 289 291 294 295 293 291 293 299 295 274 259 266 268 260 260 268 270 269 268 266 263 263 263 264 263 262 260 257 255 252 250 248 246 243 242 243 245 246 247
13 5 14 28 28 21 14 6 4 7 2 2 7 359 347 345 344 345 349 355 358 349 341 347 349 343 344 340 327 325 319 304 292 288 289 293 295 293 289 290 293 293 296 299 286 266 265 268 263 265 272 271 268 268 268 266 265 263 261 260 259 258 257 254 252 250 249 247 246 246 246 246 247 249
21 8 9 23 28 23 17 13 15 16 11 12 15 6 353 349 344 340 344 349 349 345 347 3 2 357 8 18 17 13 7 360 341 316 308 305 293 281 275 282 295 296 296 302 296 268 265 272 269 270 278 277 271 270 270 269 268 265 262 259 257 255 255 253 252 251 249 247 247 249 250 249 249 249
24 18 12 17 22 23 21 20 22 23 18 17 19 13 1 352 344 337 338 343 345 344 350 1 1 359 8 16 15 9 7 9 10 2 354 343 320 294 283 283 292 296 293 311 317 279 276 285 279 269 275 281 277 275 272 269 268 266 263 260 257 255 254 254 254 254 252 248 244 245 247 247 247 247
20 20 17 15 17 21 24 22 23 26 23 19 19 17 9 356 344 337 335 340 346 349 352 353 354 1 9 12 10 4 360 360 359 360 1 358 351 336 313 298 292 285 278 291 303 291 284 291 291 276 271 273 277 280 278 275 273 268 263 261 259 257 256 256 255 255 255 253 249 246 244 244 245 247
18 19 19 16 16 22 26 23 24 27 25 22 21 19 13 3 355 349 345 346 352 359 1 358 356 360 3 5 7 5 2 360 356 357 358 356 355 350 335 319 306 294 287 292 298 293 282 283 286 283 274 268 269 275 280 280 277 271 267 264 263 262 262 262 261 259 256 254 254 252 248 246 245 246
21 23 23 18 18 26 30 26 26 28 27 24 23 22 17 11 10 9 5 1 3 5 4 4 6 6 3 2 2 2 1 357 352 352 355 353 348 342 332 327 320 310 306 308 307 299 288 283 282 279 268 263 270 277 280 281 280 278 274 269 266 266 265 265 265 265 261 256 254 252 252 252 251 249
20 23 24 20 20 27 33 30 28 28 27 25 24 25 23 19 18 19 18 14 13 11 8 10 11 8 4 1 358 357 357 353 350 351 354 352 346 337 325 320 318 312 310 314 315 304 287 281 281 277 272 272 279 284 282 278 280 281 278 275 274 272 269 267 266 266 266 263 258 254 252 253 253 250
20 19 21 21 21 26 33 33 30 30 29 27 27 28 30 28 24 22 21 18 15 13 12 11 8 4 0 356 354 354 353 354 354 353 354 355 352 346 336 328 326 320 313 325 345 338 300 285 284 281 278 277 276 277 278 276 277 280 281 283 283 278 273 270 269 268 267 265 262 259 257 256 256 254
27 22 23 27 26 28 32 33 31 30 30 30 32 33 36 35 30 25 21 18 16 15 12 9 3 357 353 350 351 354 357 3 4 1 355 357 2 2 0 3 13 6 352 0 13 12 354 327 318 303 284 273 267 265 268 274 279 280 281 284 285 284 280 275 270 269 267 265 264 263 263 264 264 263
39 34 36 40 34 30 32 34 33 32 32 33 35 36 38 37 32 25 21 18 16 13 8 5 0 353 348 346 349 356 3 8 10 7 359 359 6 11 12 15 20 22 23 25 22 18 11 357 346 335 315 290 275 268 267 271 277 279 280 281 282 286 288 284 276 269 265 265 266 267 267 267 266 265
45 44 45 47 42 36 36 37 37 36 34 33 33 34 35 36 33 29 27 25 23 17 9 3 357 351 350 351 353 358 3 7 10 12 8 4 6 11 15 16 12 9 13 21 24 22 17 8 358 349 336 309 287 282 280 275 274 277 280 279 275 275 281 283 280 275 270 270 271 271 270 268 265 265
44 45 44 44 42 37 34 33 33 33 31 30 30 30 31 33 32 31 31 29 27 22 16 9 1 354 354 356 357 0 2 3 7 12 13 12 11 13 18 19 9 2 4 10 15 16 13 9 6 1 356 338 303 298 300 291 285 288 290 286 279 277 281 282 279 275 273 272 271 271 270 268 266 266
37 37 36 36 34 31 27 24 25 25 24 26 28 27 27 29 27 26 26 24 20 16 12 9 1 356 356 357 358 1 1 360 3 8 13 16 16 17 20 19 10 3 2 2 6 8 6 6 5 3 7 14 352 330 358 9 358 349 342 336 332 327 322 319 310 295 285 279 275 275 276 273 269 269
25 23 22 23 21 19 18 16 17 18 17 19 21 22 24 25 22 21 21 19 14 11 10 7 360 356 357 357 358 360 357 354 357 2 8 14 18 19 18 13 8 8 6 2 3 4 3 4 5 2 7 23 35 45 45 34 18 7 4 4 3 358 353 351 348 340 325 305 290 282 281 277 272 270
12 8 8 9 10 11 11 9 11 15 17 16 15 16 19 20 18 17 16 14 12 9 7 5 1 358 358 357 356 358 356 354 355 357 1 8 14 15 12 7 5 6 5 3 3 3 4 7 8 4 1 5 7 11 28 25 17 6 359 360 359 355 349 346 346 345 339 329 316 301 291 286 281 277
358 358 357 360 3 6 7 6 6 11 16 17 16 14 12 12 13 13 11 11 11 8 5 2 359 356 356 355 353 354 356 356 357 358 359 2 4 5 3 1 0 0 360 360 360 0 3 7 10 7 0 356 356 344 345 3 12 10 356 349 349 350 346 340 339 341 338 334 330 321 310 302 297 291
347 353 355 357 2 4 4 2 2 9 14 16 17 16 11 7 8 8 8 9 9 7 4 2 357 353 353 353 352 352 356 358 359 1 2 1 1 1 358 353 353 352 353 354 357 359 1 4 8 10 5 350 346 337 329 345 359 10 0 344 340 344 349 345 339 336 333 329 326 320 313 305 299 296
354 359 0 2 3 1 358 356 357 4 11 13 14 13 11 6 3 3 5 5 4 3 3 1 356 352 352 352 352 352 353 356 358 360 3 4 3 3 359 353 350 347 344 346 351 357 360 1 1 2 1 352 340 330 325 332 338 344 355 349 338 338 348 349 341 333 327 325 323 317 311 303 296 296
13 10 6 5 4 359 354 351 351 360 10 11 8 6 5 4 0 357 358 358 357 359 1 357 353 352 350 350 352 351 350 354 356 357 360 1 1 1 359 355 352 348 343 343 347 350 354 356 353 349 345 334 320 313 311 311 313 320 342 1 350 343 345 345 340 332 325 324 322 318 314 309 304 303
12 1 356 360 2 360 355 351 348 353 2 5 3 359 359 360 358 354 350 349 350 354 357 355 352 352 351 350 353 352 350 352 353 353 354 355 355 357 357 354 354 353 348 345 345 345 345 344 341 337 331 324 321 320 315 308 308 322 337 350 350 345 346 347 344 335 324 322 322 318 314 312 310 310
355 347 349 357 359 355 352 349 345 346 350 356 358 357 355 354 353 348 345 345 346 350 352 352 352 354 353 353 354 352 349 348 349 350 351 350 349 352 353 354 355 354 351 347 343 339 335 335 337 339 338 337 339 340 336 329 324 326 333 339 341 335 337 344 347 341 331 325 319 311 307 307 307 307
347 344 349 355 353 347 345 343 341 340 344 351 356 356 352 347 344 343 344 347 349 350 350 351 353 354 353 353 352 350 347 345 345 345 345 345 346 347 349 352 352 349 347 344 336 329 331 339 348 352 352 349 347 343 341 341 330 321 328 338 344 339 335 336 337 339 340 337 325 305 304 312 312 307
346 347 350 351 345 341 341 340 336 334 340 350 354 353 350 344 341 343 345 347 349 349 348 347 349 350 350 349 348 346 344 343 341 340 341 341 341 341 342 343 342 340 340 339 332 329 336 347 353 351 346 345 343 337 335 338 334 327 329 336 343 347 345 338 330 328 330 336 345 344 325 314 304 294
343 346 347 344 338 336 338 339 333 330 337 347 350 349 347 346 344 343 344 344 345 345 345 344 344 344 344 344 344 343 343 341 339 338 337 336 336 337 337 337 337 337 338 338 335 335 340 348 351 350 345 342 341 339 336 335 336 337 336 335 340 346 348 345 343 337 327 326 343 354 344 323 301 288
339 343 344 339 335 335 337 336 330 327 334 343 345 346 347 348 346 343 343 344 343 341 340 340 339 338 338 339 340 340 339 339 339 338 336 334 334 334 335 337 337 337 339 339 337 336 337 341 347 349 346 342 344 345 341 336 335 337 336 334 337 342 345 346 347 344 336 331 337 346 346 336 318 300